Year,Month,Day,Hour,Minute,Value (Times are PST for temperature in C)
2014,06,09,09,29,17.10
2014,06,09,09,31,17.20
2014,06,09,09,32,17.20
2014,06,09,09,33,17.20
2014,06,09,09,34,17.10
2014,06,09,09,35,17.10
2014,06,09,09,36,17.10
2014,06,09,09,37,17.10
2014,06,09,09,38,17.10
2014,06,09,09,39,17.10
2014,06,09,09,40,17.10
2014,06,09,09,41,17.10
2014,06,09,09,42,17.10
2014,06,09,09,43,17.10
2014,06,09,09,44,17.20
2014,06,09,09,45,17.30
2014,06,09,09,46,17.40
2014,06,09,09,47,17.40
2014,06,09,09,48,17.30
2014,06,09,09,49,17.30
2014,06,09,09,50,17.40
2014,06,09,09,51,17.40
2014,06,09,09,52,17.40
2014,06,09,09,53,17.40
2014,06,09,09,54,17.40
2014,06,09,09,55,17.30
2014,06,09,09,56,17.30
2014,06,09,09,57,17.30
2014,06,09,09,58,17.40
2014,06,09,09,59,17.40
2014,06,09,10,00,17.30
2014,06,09,10,01,17.30
2014,06,09,10,02,17.30
2014,06,09,10,03,17.30
2014,06,09,10,04,17.20
2014,06,09,10,05,17.20
2014,06,09,10,06,17.20
2014,06,09,10,07,17.20
2014,06,09,10,08,17.20
2014,06,09,10,09,17.20
2014,06,09,10,10,17.30
2014,06,09,10,11,17.40
2014,06,09,10,12,17.50
2014,06,09,10,13,17.70
2014,06,09,10,14,17.80
2014,06,09,10,15,17.80
2014,06,09,10,16,17.80
2014,06,09,10,17,17.80
2014,06,09,10,18,17.70
2014,06,09,10,19,17.70
2014,06,09,10,20,17.80
2014,06,09,10,21,17.70
2014,06,09,10,22,17.70
2014,06,09,10,23,17.70
2014,06,09,10,24,17.70
2014,06,09,10,25,17.60
2014,06,09,10,26,17.60
2014,06,09,10,27,17.70
2014,06,09,10,28,17.70
2014,06,09,10,29,17.70
2014,06,09,10,30,17.60
2014,06,09,10,31,17.60
2014,06,09,10,32,17.60
2014,06,09,10,33,17.60
2014,06,09,10,34,17.60
2014,06,09,10,35,17.40
2014,06,09,10,36,17.20
2014,06,09,10,37,17.00
2014,06,09,10,38,16.70
2014,06,09,10,39,16.60
2014,06,09,10,40,16.40
2014,06,09,10,41,16.20
2014,06,09,10,42,16.10
2014,06,09,10,43,16.10
2014,06,09,10,44,16.10
2014,06,09,10,45,16.00
2014,06,09,10,46,15.90
2014,06,09,10,47,15.80
2014,06,09,10,48,15.80
2014,06,09,10,49,15.70
2014,06,09,10,50,15.70
2014,06,09,10,51,15.60
2014,06,09,10,52,15.70
2014,06,09,10,53,15.60
2014,06,09,10,54,15.60
2014,06,09,10,55,15.70
2014,06,09,10,56,15.70
2014,06,09,10,57,15.70
2014,06,09,10,58,15.70
2014,06,09,10,59,15.70
2014,06,09,11,00,15.80
2014,06,09,11,01,15.80
2014,06,09,11,02,15.80
2014,06,09,11,03,15.90
2014,06,09,11,04,15.90
2014,06,09,11,05,15.90
2014,06,09,11,06,15.90
2014,06,09,11,07,16.00
2014,06,09,11,08,16.00
2014,06,09,11,09,16.00
2014,06,09,11,10,16.00
2014,06,09,11,11,16.10
2014,06,09,11,12,16.10
2014,06,09,11,13,16.00
2014,06,09,11,14,16.00
2014,06,09,11,15,15.90
2014,06,09,11,16,15.90
2014,06,09,11,17,15.90
2014,06,09,11,18,16.00
2014,06,09,11,19,16.00
2014,06,09,11,20,16.10
2014,06,09,11,21,16.10
2014,06,09,11,22,16.10
2014,06,09,11,23,16.20
2014,06,09,11,24,16.20
2014,06,09,11,25,16.20
2014,06,09,11,26,16.20
2014,06,09,11,27,16.20
2014,06,09,11,28,16.20
2014,06,09,11,29,16.20
2014,06,09,11,30,16.20
2014,06,09,11,31,16.20
2014,06,09,11,32,16.20
2014,06,09,11,33,16.20
2014,06,09,11,34,16.30
2014,06,09,11,35,16.40
2014,06,09,11,36,16.40
2014,06,09,11,37,16.40
2014,06,09,11,38,16.40
2014,06,09,11,39,16.40
2014,06,09,11,40,16.30
2014,06,09,11,41,16.30
2014,06,09,11,42,16.30
2014,06,09,11,43,16.30
2014,06,09,11,44,16.30
2014,06,09,11,45,16.40
2014,06,09,11,46,16.50
2014,06,09,11,47,16.50
2014,06,09,11,48,16.60
2014,06,09,11,49,16.70
2014,06,09,11,50,16.70
2014,06,09,11,51,16.70
2014,06,09,11,52,16.70
2014,06,09,11,53,16.80
2014,06,09,11,54,16.70
2014,06,09,11,55,16.70
2014,06,09,11,56,16.70
2014,06,09,11,57,16.80
2014,06,09,11,58,16.80
2014,06,09,11,59,16.80
2014,06,09,12,00,16.80
2014,06,09,12,01,16.70
2014,06,09,12,02,16.70
2014,06,09,12,03,16.70
2014,06,09,12,04,16.70
2014,06,09,12,05,16.80
2014,06,09,12,06,16.80
2014,06,09,12,07,16.80
2014,06,09,12,08,16.80
2014,06,09,12,09,16.80
2014,06,09,12,10,16.90
2014,06,09,12,11,16.90
2014,06,09,12,12,16.90
2014,06,09,12,13,17.00
2014,06,09,12,14,17.10
2014,06,09,12,15,17.20
2014,06,09,12,16,17.20
2014,06,09,12,17,17.20
2014,06,09,12,18,17.20
2014,06,09,12,19,17.20
2014,06,09,12,20,17.20
2014,06,09,12,21,17.20
2014,06,09,12,22,17.10
2014,06,09,12,23,17.10
2014,06,09,12,24,17.00
2014,06,09,12,25,17.00
2014,06,09,12,26,17.00
2014,06,09,12,27,17.00
2014,06,09,12,28,17.00
2014,06,09,12,29,17.00
2014,06,09,12,30,17.00
2014,06,09,12,31,17.00
2014,06,09,12,32,17.00
2014,06,09,12,33,17.00
2014,06,09,12,34,17.00
2014,06,09,12,35,17.00
2014,06,09,12,36,17.10
2014,06,09,12,37,17.10
2014,06,09,12,38,17.10
2014,06,09,12,39,17.10
2014,06,09,12,40,17.20
2014,06,09,12,41,17.30
2014,06,09,12,42,17.40
2014,06,09,12,43,17.40
2014,06,09,12,44,17.40
2014,06,09,12,45,17.40
2014,06,09,12,46,17.30
2014,06,09,12,47,17.30
2014,06,09,12,48,17.40
2014,06,09,12,49,17.40
2014,06,09,12,50,17.40
2014,06,09,12,51,17.40
2014,06,09,12,52,17.20
2014,06,09,12,53,17.10
2014,06,09,12,54,17.00
2014,06,09,12,55,17.00
2014,06,09,12,56,17.10
2014,06,09,12,57,17.20
2014,06,09,12,58,17.20
2014,06,09,12,59,17.10
2014,06,09,13,00,17.00
2014,06,09,13,01,16.90
2014,06,09,13,02,16.90
2014,06,09,13,03,16.90
2014,06,09,13,04,16.90
2014,06,09,13,05,16.80
2014,06,09,13,06,16.80
2014,06,09,13,07,16.90
2014,06,09,13,08,16.90
2014,06,09,13,09,16.90
2014,06,09,13,10,16.90
2014,06,09,13,11,16.90
2014,06,09,13,12,16.90
2014,06,09,13,13,16.90
2014,06,09,13,14,16.90
2014,06,09,13,15,17.00
2014,06,09,13,16,17.10
2014,06,09,13,17,17.10
2014,06,09,13,18,17.20
2014,06,09,13,19,17.20
2014,06,09,13,20,17.30
2014,06,09,13,21,17.30
2014,06,09,13,22,17.20
2014,06,09,13,23,17.20
2014,06,09,13,24,17.20
2014,06,09,13,25,17.20
2014,06,09,13,26,17.20
2014,06,09,13,27,17.20
2014,06,09,13,28,17.30
2014,06,09,13,29,17.30
2014,06,09,13,30,17.30
2014,06,09,13,31,17.30
2014,06,09,13,32,17.40
2014,06,09,13,33,17.40
2014,06,09,13,34,17.50
2014,06,09,13,35,17.50
2014,06,09,13,36,17.50
2014,06,09,13,37,17.60
2014,06,09,13,38,17.60
2014,06,09,13,39,17.60
2014,06,09,13,40,17.60
2014,06,09,13,41,17.70
2014,06,09,13,42,17.80
2014,06,09,13,43,17.90
2014,06,09,13,44,17.90
2014,06,09,13,45,17.90
2014,06,09,13,46,17.90
2014,06,09,13,47,17.90
2014,06,09,13,48,17.90
2014,06,09,13,49,17.90
2014,06,09,13,50,17.90
2014,06,09,13,51,17.90
2014,06,09,13,52,17.90
2014,06,09,13,53,17.80
2014,06,09,13,54,17.70
2014,06,09,13,55,17.70
2014,06,09,13,56,17.80
2014,06,09,13,57,17.80
2014,06,09,13,58,17.80
2014,06,09,13,59,17.80
2014,06,09,14,00,17.80
2014,06,09,14,01,17.80
2014,06,09,14,02,17.80
2014,06,09,14,03,17.80
2014,06,09,14,04,17.80
2014,06,09,14,05,17.80
2014,06,09,14,06,17.80
2014,06,09,14,07,17.90
2014,06,09,14,08,17.90
2014,06,09,14,09,18.00
2014,06,09,14,10,18.00
2014,06,09,14,11,18.00
2014,06,09,14,12,18.00
2014,06,09,14,13,18.10
2014,06,09,14,14,18.10
2014,06,09,14,15,18.10
2014,06,09,14,16,18.10
2014,06,09,14,17,18.10
2014,06,09,14,18,18.10
2014,06,09,14,19,18.10
2014,06,09,14,20,18.10
2014,06,09,14,21,18.20
2014,06,09,14,22,18.20
2014,06,09,14,23,18.30
2014,06,09,14,24,18.50
2014,06,09,14,25,18.60
2014,06,09,14,26,18.70
2014,06,09,14,27,18.80
2014,06,09,14,28,18.70
2014,06,09,14,29,18.70
2014,06,09,14,30,18.60
2014,06,09,14,31,18.50
2014,06,09,14,32,18.50
2014,06,09,14,33,18.50
2014,06,09,14,34,18.50
2014,06,09,14,35,18.50
2014,06,09,14,36,18.50
2014,06,09,14,37,18.60
2014,06,09,14,38,18.60
2014,06,09,14,39,18.60
2014,06,09,14,40,18.60
2014,06,09,14,41,18.60
2014,06,09,14,42,18.60
2014,06,09,14,43,18.60
2014,06,09,14,44,18.70
2014,06,09,14,45,18.80
2014,06,09,14,46,18.80
2014,06,09,14,47,18.80
2014,06,09,14,48,18.70
2014,06,09,14,49,18.70
2014,06,09,14,50,18.70
2014,06,09,14,51,18.70
2014,06,09,14,52,18.70
2014,06,09,14,53,18.60
2014,06,09,14,54,18.60
2014,06,09,14,55,18.60
2014,06,09,14,56,18.60
2014,06,09,14,57,18.60
2014,06,09,14,58,18.60
2014,06,09,14,59,18.60
2014,06,09,15,00,18.70
2014,06,09,15,01,18.70
2014,06,09,15,02,18.70
2014,06,09,15,03,18.70
2014,06,09,15,04,18.70
2014,06,09,15,05,18.80
2014,06,09,15,06,18.80
2014,06,09,15,07,18.80
2014,06,09,15,08,18.70
2014,06,09,15,09,18.70
2014,06,09,15,10,18.60
2014,06,09,15,11,18.60
2014,06,09,15,12,18.60
2014,06,09,15,13,18.60
2014,06,09,15,14,18.60
2014,06,09,15,15,18.60
2014,06,09,15,16,18.60
2014,06,09,15,17,18.70
2014,06,09,15,18,18.80
2014,06,09,15,19,18.80
2014,06,09,15,20,18.70
2014,06,09,15,21,18.70
2014,06,09,15,22,18.80
2014,06,09,15,23,18.90
2014,06,09,15,24,18.90
2014,06,09,15,25,18.90
2014,06,09,15,26,19.00
2014,06,09,15,27,19.00
2014,06,09,15,28,19.00
2014,06,09,15,29,19.00
2014,06,09,15,30,19.20
2014,06,09,15,31,19.20
2014,06,09,15,32,19.10
2014,06,09,15,33,19.00
2014,06,09,15,34,18.90
2014,06,09,15,35,18.90
2014,06,09,15,36,18.80
2014,06,09,15,37,18.90
2014,06,09,15,38,18.90
2014,06,09,15,39,18.90
2014,06,09,15,40,19.00
2014,06,09,15,41,19.00
2014,06,09,15,42,19.00
2014,06,09,15,43,19.00
2014,06,09,15,44,19.10
2014,06,09,15,45,19.10
2014,06,09,15,46,19.10
2014,06,09,15,47,19.20
2014,06,09,15,48,19.30
2014,06,09,15,49,19.30
2014,06,09,15,50,19.40
2014,06,09,15,51,19.50
2014,06,09,15,52,19.60
2014,06,09,15,53,19.70
2014,06,09,15,54,19.80
2014,06,09,15,55,19.80
2014,06,09,15,56,19.70
2014,06,09,15,57,19.60
2014,06,09,15,58,19.50
2014,06,09,15,59,19.40
2014,06,09,16,00,19.30
2014,06,09,16,01,19.20
2014,06,09,16,02,19.10
2014,06,09,16,03,19.10
2014,06,09,16,04,19.10
2014,06,09,16,05,19.10
2014,06,09,16,06,19.20
2014,06,09,16,07,19.20
2014,06,09,16,08,19.20
2014,06,09,16,09,19.20
2014,06,09,16,10,19.30
2014,06,09,16,11,19.30
2014,06,09,16,12,19.40
2014,06,09,16,13,19.50
2014,06,09,16,14,19.70
2014,06,09,16,15,19.80
2014,06,09,16,16,19.80
2014,06,09,16,17,19.80
2014,06,09,16,18,19.80
2014,06,09,16,19,19.70
2014,06,09,16,20,19.70
2014,06,09,16,21,19.70
2014,06,09,16,22,19.70
2014,06,09,16,23,19.50
2014,06,09,16,24,19.40
2014,06,09,16,25,19.40
2014,06,09,16,26,19.30
2014,06,09,16,27,19.40
2014,06,09,16,28,19.50
2014,06,09,16,29,19.60
2014,06,09,16,30,19.70
2014,06,09,16,31,19.70
2014,06,09,16,32,19.70
2014,06,09,16,33,19.70
2014,06,09,16,34,19.70
2014,06,09,16,35,19.70
2014,06,09,16,36,19.70
2014,06,09,16,37,19.80
2014,06,09,16,38,19.80
2014,06,09,16,39,19.90
2014,06,09,16,40,19.90
2014,06,09,16,41,20.00
2014,06,09,16,42,20.00
2014,06,09,16,43,20.00
2014,06,09,16,44,20.00
2014,06,09,16,45,19.90
2014,06,09,16,46,19.90
2014,06,09,16,47,19.90
2014,06,09,16,48,19.90
2014,06,09,16,49,19.90
2014,06,09,16,50,19.80
2014,06,09,16,51,19.80
2014,06,09,16,52,19.90
2014,06,09,16,53,19.90
2014,06,09,16,54,20.00
2014,06,09,16,55,20.00
2014,06,09,16,56,20.10
2014,06,09,16,57,20.10
2014,06,09,16,58,20.10
2014,06,09,16,59,20.10
2014,06,09,17,00,20.10
2014,06,09,17,01,20.10
2014,06,09,17,02,20.10
2014,06,09,17,03,20.00
2014,06,09,17,04,20.00
2014,06,09,17,05,20.00
2014,06,09,17,06,20.00
2014,06,09,17,07,20.10
2014,06,09,17,08,20.10
2014,06,09,17,09,20.00
2014,06,09,17,10,19.90
2014,06,09,17,11,19.80
2014,06,09,17,12,19.70
2014,06,09,17,13,19.70
2014,06,09,17,14,19.60
2014,06,09,17,15,19.60
2014,06,09,17,16,19.60
2014,06,09,17,17,19.60
2014,06,09,17,18,19.60
2014,06,09,17,19,19.50
2014,06,09,17,20,19.40
2014,06,09,17,21,19.40
2014,06,09,17,22,19.40
2014,06,09,17,23,19.40
2014,06,09,17,24,19.40
2014,06,09,17,25,19.50
2014,06,09,17,26,19.50
2014,06,09,17,27,19.60
2014,06,09,17,28,19.60
2014,06,09,17,29,19.60
2014,06,09,17,30,19.50
2014,06,09,17,31,19.50
2014,06,09,17,32,19.40
2014,06,09,17,33,19.40
2014,06,09,17,34,19.50
2014,06,09,17,35,19.50
2014,06,09,17,36,19.50
2014,06,09,17,37,19.40
2014,06,09,17,38,19.40
2014,06,09,17,39,19.30
2014,06,09,17,40,19.30
2014,06,09,17,41,19.20
2014,06,09,17,42,19.20
2014,06,09,17,43,19.20
2014,06,09,17,44,19.20
2014,06,09,17,45,19.20
2014,06,09,17,46,19.20
2014,06,09,17,47,19.20
2014,06,09,17,48,19.20
2014,06,09,17,49,19.20
2014,06,09,17,50,19.20
2014,06,09,17,51,19.20
2014,06,09,17,52,19.20
2014,06,09,17,53,19.20
2014,06,09,17,54,19.20
2014,06,09,17,55,19.30
2014,06,09,17,56,19.30
2014,06,09,17,57,19.30
2014,06,09,17,58,19.30
2014,06,09,17,59,19.30
2014,06,09,18,00,19.30
2014,06,09,18,01,19.30
2014,06,09,18,02,19.40
2014,06,09,18,03,19.40
2014,06,09,18,04,19.40
2014,06,09,18,05,19.40
2014,06,09,18,06,19.40
2014,06,09,18,07,19.40
2014,06,09,18,08,19.50
2014,06,09,18,09,19.60
2014,06,09,18,10,19.60
2014,06,09,18,11,19.60
2014,06,09,18,12,19.60
2014,06,09,18,13,19.50
2014,06,09,18,14,19.40
2014,06,09,18,15,19.30
2014,06,09,18,16,19.30
2014,06,09,18,17,19.30
2014,06,09,18,18,19.30
2014,06,09,18,19,19.30
2014,06,09,18,20,19.30
2014,06,09,18,21,19.30
2014,06,09,18,22,19.30
2014,06,09,18,23,19.30
2014,06,09,18,24,19.30
2014,06,09,18,25,19.30
2014,06,09,18,26,19.30
2014,06,09,18,27,19.20
2014,06,09,18,28,19.20
2014,06,09,18,29,19.20
2014,06,09,18,30,19.20
2014,06,09,18,31,19.20
2014,06,09,18,32,19.30
2014,06,09,18,33,19.40
2014,06,09,18,34,19.40
2014,06,09,18,35,19.50
2014,06,09,18,36,19.60
2014,06,09,18,37,19.50
2014,06,09,18,38,19.50
2014,06,09,18,39,19.50
2014,06,09,18,40,19.50
2014,06,09,18,41,19.50
2014,06,09,18,42,19.40
2014,06,09,18,43,19.40
2014,06,09,18,44,19.40
2014,06,09,18,45,19.40
2014,06,09,18,46,19.40
2014,06,09,18,47,19.40
2014,06,09,18,48,19.50
2014,06,09,18,49,19.50
2014,06,09,18,50,19.50
2014,06,09,18,51,19.50
2014,06,09,18,52,19.50
2014,06,09,18,53,19.40
2014,06,09,18,54,19.40
2014,06,09,18,55,19.40
2014,06,09,18,56,19.30
2014,06,09,18,57,19.20
2014,06,09,18,58,19.20
2014,06,09,18,59,19.20
2014,06,09,19,00,19.10
2014,06,09,19,01,19.10
2014,06,09,19,02,19.20
2014,06,09,19,03,19.20
2014,06,09,19,04,19.20
2014,06,09,19,05,19.30
2014,06,09,19,06,19.30
2014,06,09,19,07,19.30
2014,06,09,19,08,19.30
2014,06,09,19,09,19.30
2014,06,09,19,10,19.20
2014,06,09,19,11,19.10
2014,06,09,19,12,19.00
2014,06,09,19,13,18.90
2014,06,09,19,14,18.70
2014,06,09,19,15,18.70
2014,06,09,19,16,18.60
2014,06,09,19,17,18.60
2014,06,09,19,18,18.50
2014,06,09,19,19,18.40
2014,06,09,19,20,18.30
2014,06,09,19,21,18.20
2014,06,09,19,22,18.00
2014,06,09,19,23,17.90
2014,06,09,19,24,17.80
2014,06,09,19,25,17.60
2014,06,09,19,26,17.60
2014,06,09,19,27,17.50
2014,06,09,19,28,17.40
2014,06,09,19,29,17.40
2014,06,09,19,30,17.40
2014,06,09,19,31,17.40
2014,06,09,19,32,17.40
2014,06,09,19,33,17.40
2014,06,09,19,34,17.40
2014,06,09,19,35,17.40
2014,06,09,19,36,17.40
2014,06,09,19,37,17.40
2014,06,09,19,38,17.40
2014,06,09,19,39,17.40
2014,06,09,19,40,17.30
2014,06,09,19,41,17.30
2014,06,09,19,42,17.30
2014,06,09,19,43,17.30
2014,06,09,19,44,17.30
2014,06,09,19,45,17.30
2014,06,09,19,46,17.30
2014,06,09,19,47,17.30
2014,06,09,19,48,17.30
2014,06,09,19,49,17.20
2014,06,09,19,50,17.20
2014,06,09,19,51,17.20
2014,06,09,19,52,17.10
2014,06,09,19,53,17.10
2014,06,09,19,54,17.10
2014,06,09,19,55,17.10
2014,06,09,19,56,17.10
2014,06,09,19,57,17.10
2014,06,09,19,58,17.10
2014,06,09,19,59,17.10
2014,06,09,20,00,17.10
2014,06,09,20,01,17.10
2014,06,09,20,02,17.10
2014,06,09,20,03,17.10
2014,06,09,20,04,17.20
2014,06,09,20,05,17.20
2014,06,09,20,06,17.20
2014,06,09,20,07,17.20
2014,06,09,20,08,17.20
2014,06,09,20,09,17.30
2014,06,09,20,10,17.30
2014,06,09,20,11,17.30
2014,06,09,20,12,17.40
2014,06,09,20,13,17.40
2014,06,09,20,14,17.40
2014,06,09,20,15,17.50
2014,06,09,20,16,17.50
2014,06,09,20,17,17.50
2014,06,09,20,18,17.50
2014,06,09,20,19,17.50
2014,06,09,20,20,17.40
2014,06,09,20,21,17.40
2014,06,09,20,22,17.40
2014,06,09,20,23,17.40
2014,06,09,20,24,17.40
2014,06,09,20,25,17.40
2014,06,09,20,26,17.40
2014,06,09,20,27,17.40
2014,06,09,20,28,17.40
2014,06,09,20,29,17.40
2014,06,09,20,30,17.40
2014,06,09,20,31,17.40
2014,06,09,20,32,17.40
2014,06,09,20,33,17.40
2014,06,09,20,34,17.40
2014,06,09,20,35,17.30
2014,06,09,20,36,17.30
2014,06,09,20,37,17.30
2014,06,09,20,38,17.30
2014,06,09,20,39,17.20
2014,06,09,20,40,17.20
2014,06,09,20,41,17.20
2014,06,09,20,42,17.10
2014,06,09,20,43,17.10
2014,06,09,20,44,17.00
2014,06,09,20,45,17.00
2014,06,09,20,46,16.90
2014,06,09,20,47,16.90
2014,06,09,20,48,16.90
2014,06,09,20,49,16.80
2014,06,09,20,50,16.80
2014,06,09,20,51,16.80
2014,06,09,20,52,16.80
2014,06,09,20,53,16.80
2014,06,09,20,54,16.80
2014,06,09,20,55,16.80
2014,06,09,20,56,16.80
2014,06,09,20,57,16.70
2014,06,09,20,58,16.70
2014,06,09,20,59,16.70
2014,06,09,21,00,16.70
2014,06,09,21,01,16.70
2014,06,09,21,02,16.70
2014,06,09,21,03,16.70
2014,06,09,21,04,16.70
2014,06,09,21,05,16.70
2014,06,09,21,06,16.60
2014,06,09,21,07,16.60
2014,06,09,21,08,16.60
2014,06,09,21,09,16.60
2014,06,09,21,10,16.60
2014,06,09,21,11,16.60
2014,06,09,21,12,16.50
2014,06,09,21,13,16.50
2014,06,09,21,14,16.40
2014,06,09,21,15,16.40
2014,06,09,21,16,16.40
2014,06,09,21,17,16.40
2014,06,09,21,18,16.40
2014,06,09,21,19,16.30
2014,06,09,21,20,16.30
2014,06,09,21,21,16.30
2014,06,09,21,22,16.20
2014,06,09,21,23,16.20
2014,06,09,21,24,16.20
2014,06,09,21,25,16.10
2014,06,09,21,26,16.10
2014,06,09,21,27,16.10
2014,06,09,21,28,16.10
2014,06,09,21,29,16.00
2014,06,09,21,30,16.00
2014,06,09,21,31,15.90
2014,06,09,21,32,15.90
2014,06,09,21,33,15.90
2014,06,09,21,34,15.80
2014,06,09,21,35,15.80
2014,06,09,21,36,15.70
2014,06,09,21,37,15.60
2014,06,09,21,38,15.60
2014,06,09,21,39,15.50
2014,06,09,21,40,15.40
2014,06,09,21,41,15.40
2014,06,09,21,42,15.40
2014,06,09,21,43,15.30
2014,06,09,21,44,15.30
2014,06,09,21,45,15.30
2014,06,09,21,46,15.20
2014,06,09,21,47,15.20
2014,06,09,21,48,15.10
2014,06,09,21,49,15.00
2014,06,09,21,50,15.00
2014,06,09,21,51,14.90
2014,06,09,21,52,14.90
2014,06,09,21,53,14.90
2014,06,09,21,54,14.90
2014,06,09,21,55,14.90
2014,06,09,21,56,14.80
2014,06,09,21,57,14.80
2014,06,09,21,58,14.80
2014,06,09,21,59,14.70
2014,06,09,22,00,14.70
2014,06,09,22,01,14.70
2014,06,09,22,02,14.60
2014,06,09,22,03,14.60
2014,06,09,22,04,14.60
2014,06,09,22,05,14.60
2014,06,09,22,06,14.70
2014,06,09,22,07,14.70
2014,06,09,22,08,14.70
2014,06,09,22,09,14.70
2014,06,09,22,10,14.70
2014,06,09,22,11,14.70
2014,06,09,22,12,14.60
2014,06,09,22,13,14.60
2014,06,09,22,14,14.60
2014,06,09,22,15,14.60
2014,06,09,22,16,14.60
2014,06,09,22,17,14.60
2014,06,09,22,18,14.60
2014,06,09,22,19,14.70
2014,06,09,22,20,14.70
2014,06,09,22,21,14.60
2014,06,09,22,22,14.60
2014,06,09,22,23,14.60
2014,06,09,22,24,14.60
2014,06,09,22,25,14.60
2014,06,09,22,26,14.60
2014,06,09,22,27,14.60
2014,06,09,22,28,14.60
2014,06,09,22,29,14.60
2014,06,09,22,30,14.60
2014,06,09,22,31,14.60
2014,06,09,22,32,14.60
2014,06,09,22,33,14.60
2014,06,09,22,34,14.60
2014,06,09,22,35,14.60
2014,06,09,22,36,14.60
2014,06,09,22,37,14.60
2014,06,09,22,38,14.60
2014,06,09,22,39,14.70
2014,06,09,22,40,14.70
2014,06,09,22,41,14.70
2014,06,09,22,42,14.70
2014,06,09,22,43,14.70
2014,06,09,22,44,14.70
2014,06,09,22,45,14.70
2014,06,09,22,46,14.70
2014,06,09,22,47,14.70
2014,06,09,22,48,14.70
2014,06,09,22,49,14.70
2014,06,09,22,50,14.70
2014,06,09,22,51,14.70
2014,06,09,22,52,14.70
2014,06,09,22,53,14.70
2014,06,09,22,54,14.70
2014,06,09,22,55,14.70
2014,06,09,22,56,14.70
2014,06,09,22,57,14.80
2014,06,09,22,58,14.70
2014,06,09,22,59,14.70
2014,06,09,23,00,14.70
2014,06,09,23,01,14.70
2014,06,09,23,02,14.70
2014,06,09,23,03,14.70
2014,06,09,23,04,14.70
2014,06,09,23,05,14.70
2014,06,09,23,06,14.70
2014,06,09,23,07,14.70
2014,06,09,23,08,14.70
2014,06,09,23,09,14.70
2014,06,09,23,10,14.70
2014,06,09,23,11,14.70
2014,06,09,23,12,14.70
2014,06,09,23,13,14.70
2014,06,09,23,14,14.70
2014,06,09,23,15,14.60
2014,06,09,23,16,14.60
2014,06,09,23,17,14.60
2014,06,09,23,18,14.60
2014,06,09,23,19,14.60
2014,06,09,23,20,14.50
2014,06,09,23,21,14.50
2014,06,09,23,22,14.50
2014,06,09,23,23,14.50
2014,06,09,23,24,14.50
2014,06,09,23,25,14.40
2014,06,09,23,26,14.40
2014,06,09,23,27,14.40
2014,06,09,23,28,14.40
2014,06,09,23,29,14.40
2014,06,09,23,30,14.40
2014,06,09,23,31,14.40
2014,06,09,23,32,14.30
2014,06,09,23,33,14.30
2014,06,09,23,34,14.30
2014,06,09,23,35,14.30
2014,06,09,23,36,14.30
2014,06,09,23,37,14.30
2014,06,09,23,38,14.30
2014,06,09,23,39,14.30
2014,06,09,23,40,14.30
2014,06,09,23,41,14.30
2014,06,09,23,42,14.30
2014,06,09,23,43,14.30
2014,06,09,23,44,14.20
2014,06,09,23,45,14.20
2014,06,09,23,46,14.20
2014,06,09,23,47,14.20
2014,06,09,23,48,14.20
2014,06,09,23,49,14.20
2014,06,09,23,50,14.20
2014,06,09,23,51,14.20
2014,06,09,23,52,14.20
2014,06,09,23,53,14.20
2014,06,09,23,54,14.10
2014,06,09,23,55,14.10
2014,06,09,23,56,14.10
2014,06,09,23,57,14.10
2014,06,09,23,58,14.10
2014,06,09,23,59,14.10
